Tracking 29799 objects as of 11-Oct-2024
HD Live streaming from Space Station
objects crossing your sky now

STARLINK-3919

Track STARLINK-3919 now!
10-day predictions
STARLINK-3919 is classified as:


NORAD ID: 52580
Int'l Code: 2022-051AW
Perigee: 545.9 km
Apogee: 547.8 km
Inclination: 53.2 °
Period: 95.4 minutes
Semi major axis: 6917 km
RCS: Unknown
Launch date: May 13, 2022
Source: United States (US)
Launch site: AIR FORCE WESTERN TEST RANGE (AFWTR)
Your satellite tracking list
Your tracking list is empty




NASA's NSSDC Master Catalog

Two Line Element Set (TLE):
1 52580U 22051AW  24284.71058401  .00002383  00000-0  16776-3 0  9992
2 52580  53.2177 285.9636 0001411 103.9832 256.1317 15.08844433133630
Source of the keplerian elements: AFSPC